User: anonymous   Login
Location: Kailua
(21.4020°N, 157.7390°W)
Time: 12:55:56
(UTC-10:00)
Language:

Cosmos 2221 Rocket - Orbit

View from above orbital plane
View from above orbital plane
View from above satellite
View from above satellite

Ground track
Ground track

The orbit data is extracted from the following two-line orbital elements,

1 22237U 92080B   14330.15605672  .00000499  00000-0  65820-4 0  5014
2 22237 082.5131 266.4266 0020140 024.0879 101.7741 14.77974288185458
Epoch (UTC): 26 November 2014 03:44:43
Eccentricity: 0.0020140
inclination: 82.5131°
perigee height: 621 km
apogee height: 650 km
right ascension of ascending node: 266.4266°
argument of perigee: 24.0879°
revolutions per day: 14.77974288
mean anomaly at epoch: 101.7741°
orbit number at epoch: 18545

The dashed part of the orbit path shows where the satellite is in the earth's shadow,  

DLR